• In Romania
  • List of Countries
  • For 7 days
  • Water Temperature
  • Satellite Maps
  • Weather Map
  • Weather Widgets
  • user-avatar
    Login

    Hourly Weather Terekeevo

    Today, 18 August, Saturday

    Time Temperature Precipitation Wind Pressure Humidity
    00:00 +9°C° 0 mm 2 mps 747 mmHg 84%
    01:00 +9°C° 0 mm 2 mps 747 mmHg 86%
    02:00 +8°C° 0 mm 2 mps 747 mmHg 88%
    03:00 +8°C° 0 mm 2 mps 747 mmHg 90%
    04:00 +7°C° 0 mm 2 mps 747 mmHg 92%
    05:00 +8°C° 0 mm 2 mps 747 mmHg 90%
    06:00 +9°C° 0 mm 2 mps 748 mmHg 87%
    07:00 +10°C° 0 mm 3 mps 748 mmHg 85%
    08:00 +11°C° 0 mm 3 mps 748 mmHg 79%
    09:00 +13°C° 0 mm 3 mps 748 mmHg 73%
    10:00 +14°C° 0 mm 4 mps 748 mmHg 68%
    11:00 +15°C° 0.1 mm 4 mps 748 mmHg 65%
    12:00 +17°C° 0.1 mm 4 mps 748 mmHg 63%
    13:00 +18°C° 0.1 mm 4 mps 747 mmHg 60%
    14:00 +18°C° 0.1 mm 4 mps 747 mmHg 61%
    15:00 +17°C° 0.1 mm 4 mps 747 mmHg 63%
    16:00 +17°C° 0.1 mm 4 mps 747 mmHg 64%
    17:00 +15°C° 0 mm 4 mps 747 mmHg 69%
    18:00 +14°C° 0 mm 3 mps 748 mmHg 73%
    19:00 +13°C° 0 mm 3 mps 748 mmHg 78%
    20:00 +12°C° 0 mm 3 mps 748 mmHg 80%
    21:00 +11°C° 0 mm 3 mps 748 mmHg 83%
    22:00 +10°C° 0 mm 3 mps 748 mmHg 86%
    23:00 +9°C° 0 mm 3 mps 748 mmHg 87%

    Tomorrow, 19 August, Sunday

    Time Temperature Precipitation Wind Pressure Humidity
    00:00 +8°C° 0 mm 3 mps 748 mmHg 88%
    01:00 +8°C° 0 mm 3 mps 748 mmHg 89%
    02:00 +8°C° 0 mm 2 mps 748 mmHg 90%
    03:00 +7°C° 0 mm 2 mps 749 mmHg 92%
    04:00 +7°C° 0 mm 2 mps 749 mmHg 93%
    05:00 +8°C° 0 mm 2 mps 749 mmHg 91%
    06:00 +9°C° 0 mm 3 mps 749 mmHg 88%
    07:00 +9°C° 0 mm 3 mps 749 mmHg 86%
    08:00 +11°C° 0 mm 3 mps 749 mmHg 80%
    09:00 +13°C° 0 mm 3 mps 749 mmHg 74%
    10:00 +16°C° 0 mm 3 mps 749 mmHg 68%
    11:00 +17°C° 0 mm 3 mps 749 mmHg 65%
    12:00 +18°C° 0 mm 3 mps 749 mmHg 61%
    13:00 +19°C° 0 mm 3 mps 748 mmHg 58%
    14:00 +19°C° 0.1 mm 3 mps 748 mmHg 58%
    15:00 +19°C° 0.1 mm 3 mps 748 mmHg 58%
    16:00 +19°C° 0.1 mm 3 mps 748 mmHg 58%
    17:00 +18°C° 0 mm 3 mps 748 mmHg 64%
    18:00 +16°C° 0 mm 2 mps 748 mmHg 70%
    19:00 +15°C° 0 mm 2 mps 747 mmHg 76%
    20:00 +14°C° 0 mm 2 mps 748 mmHg 79%
    21:00 +12°C° 0 mm 2 mps 748 mmHg 82%
    22:00 +11°C° 0 mm 1 mps 748 mmHg 84%
    23:00 +11°C° 0 mm 1 mps 748 mmHg 85%

    Day after tomorrow, 20 August, Monday

    Time Temperature Precipitation Wind Pressure Humidity
    00:00 +10°C° 0 mm 1 mps 748 mmHg 85%
    01:00 +8°C° 0 mm 0 mps 747 mmHg 86%
    02:00 +8°C° 0 mm 0 mps 747 mmHg 86%
    03:00 +9°C° 0 mm 1 mps 747 mmHg 87%
    04:00 +9°C° 0 mm 1 mps 747 mmHg 87%
    05:00 +9°C° 0 mm 0 mps 747 mmHg 85%
    06:00 +10°C° 0 mm 0 mps 747 mmHg 82%
    07:00 +11°C° 0 mm 0 mps 747 mmHg 80%
    08:00 +12°C° 0 mm 0 mps 747 mmHg 74%
    09:00 +15°C° 0 mm 1 mps 747 mmHg 68%
    10:00 +18°C° 0 mm 1 mps 747 mmHg 63%
    11:00 +19°C° 0 mm 1 mps 746 mmHg 59%
    12:00 +20°C° 0 mm 1 mps 746 mmHg 56%
    13:00 +19°C° 0 mm 2 mps 746 mmHg 53%
    14:00 +19°C° 0 mm 2 mps 746 mmHg 54%
    15:00 +20°C° 0 mm 2 mps 745 mmHg 55%
    16:00 +20°C° 0 mm 2 mps 745 mmHg 56%
    17:00 +19°C° 0 mm 2 mps 745 mmHg 62%
    18:00 +18°C° 0 mm 2 mps 745 mmHg 68%
    19:00 +16°C° 0 mm 2 mps 745 mmHg 75%
    20:00 +16°C° 0 mm 2 mps 745 mmHg 76%
    21:00 +15°C° 0 mm 2 mps 745 mmHg 77%
    22:00 +15°C° 0 mm 2 mps 744 mmHg 78%
    23:00 +15°C° 0 mm 2 mps 744 mmHg 79%

    21 August, Tuesday

    Time Temperature Precipitation Wind Pressure Humidity
    00:00 +15°C° 0 mm 2 mps 744 mmHg 80%
    01:00 +14°C° 0 mm 3 mps 743 mmHg 81%
    02:00 +13°C° 0 mm 3 mps 743 mmHg 84%
    03:00 +13°C° 0 mm 3 mps 743 mmHg 87%
    04:00 +13°C° 0 mm 3 mps 743 mmHg 89%
    05:00 +13°C° 0 mm 3 mps 743 mmHg 91%
    06:00 +14°C° 0 mm 3 mps 743 mmHg 92%
    07:00 +14°C° 0 mm 3 mps 743 mmHg 93%
    08:00 +16°C° 0 mm 3 mps 743 mmHg 91%
    09:00 +17°C° 0 mm 2 mps 743 mmHg 90%
    10:00 +17°C° 0 mm 2 mps 743 mmHg 89%
    11:00 +18°C° 0 mm 2 mps 743 mmHg 86%
    12:00 +19°C° 0 mm 2 mps 743 mmHg 83%
    13:00 +20°C° 0 mm 2 mps 743 mmHg 80%
    14:00 +21°C° 0 mm 2 mps 743 mmHg 76%
    15:00 +21°C° 0 mm 2 mps 743 mmHg 73%
    16:00 +23°C° 0 mm 2 mps 742 mmHg 69%
    17:00 +21°C° 0 mm 2 mps 742 mmHg 73%
    18:00 +21°C° 0 mm 1 mps 742 mmHg 77%
    19:00 +20°C° 0 mm 1 mps 742 mmHg 82%
    20:00 +19°C° 0 mm 1 mps 742 mmHg 85%
    21:00 +18°C° 0 mm 1 mps 742 mmHg 88%
    22:00 +16°C° 0 mm 2 mps 742 mmHg 92%
    23:00 +16°C° 0 mm 2 mps 742 mmHg 93%

    22 August, Wednesday

    Time Temperature Precipitation Wind Pressure Humidity
    00:00 +15°C° 0 mm 2 mps 742 mmHg 94%
    01:00 +15°C° 0 mm 2 mps 741 mmHg 94%
    02:00 +15°C° 0 mm 2 mps 741 mmHg 95%
    03:00 +15°C° 0 mm 2 mps 741 mmHg 96%
    04:00 +15°C° 0 mm 2 mps 741 mmHg 96%
    05:00 +15°C° 0 mm 2 mps 741 mmHg 95%
    06:00 +16°C° 0 mm 2 mps 741 mmHg 95%
    07:00 +17°C° 0 mm 3 mps 741 mmHg 94%
    08:00 +18°C° 0 mm 3 mps 740 mmHg 89%
    09:00 +20°C° 0 mm 4 mps 740 mmHg 84%
    10:00 +22°C° 0 mm 4 mps 740 mmHg 79%
    11:00 +23°C° 0.9 mm 4 mps 740 mmHg 76%
    12:00 +23°C° 0.9 mm 5 mps 739 mmHg 73%
    13:00 +25°C° 0.9 mm 5 mps 739 mmHg 70%
    14:00 +25°C° 0.7 mm 5 mps 738 mmHg 71%
    15:00 +25°C° 0.7 mm 5 mps 738 mmHg 72%
    16:00 +25°C° 0.7 mm 5 mps 738 mmHg 73%
    17:00 +22°C° 1.1 mm 4 mps 738 mmHg 79%
    18:00 +20°C° 1.1 mm 4 mps 738 mmHg 84%
    19:00 +19°C° 1.1 mm 4 mps 738 mmHg 90%
    20:00 +18°C° 0.7 mm 4 mps 738 mmHg 91%
    21:00 +17°C° 0.7 mm 4 mps 738 mmHg 93%
    22:00 +15°C° 0.7 mm 4 mps 739 mmHg 94%
    23:00 +14°C° 0.1 mm 4 mps 739 mmHg 94%

    23 August, Thursday

    Time Temperature Precipitation Wind Pressure Humidity
    00:00 +13°C° 0.1 mm 4 mps 739 mmHg 94%
    01:00 +12°C° 0.1 mm 4 mps 740 mmHg 94%
    02:00 +11°C° 0 mm 4 mps 740 mmHg 94%
    03:00 +10°C° 0 mm 4 mps 740 mmHg 95%
    04:00 +8°C° 0 mm 4 mps 741 mmHg 95%
    05:00 +8°C° 0 mm 4 mps 741 mmHg 93%
    06:00 +8°C° 0 mm 5 mps 742 mmHg 91%
    07:00 +8°C° 0 mm 5 mps 742 mmHg 89%
    08:00 +9°C° 0 mm 5 mps 742 mmHg 83%
    09:00 +10°C° 0 mm 5 mps 742 mmHg 77%
    10:00 +13°C° 0 mm 6 mps 743 mmHg 71%
    11:00 +13°C° 0 mm 6 mps 743 mmHg 68%
    12:00 +13°C° 0 mm 6 mps 743 mmHg 66%
    13:00 +14°C° 0 mm 6 mps 743 mmHg 63%
    14:00 +14°C° 0 mm 6 mps 743 mmHg 63%
    15:00 +14°C° 0 mm 6 mps 743 mmHg 63%
    16:00 +14°C° 0 mm 5 mps 744 mmHg 63%
    17:00 +13°C° 0 mm 4 mps 744 mmHg 66%
    18:00 +12°C° 0 mm 3 mps 744 mmHg 69%
    19:00 +12°C° 0 mm 3 mps 744 mmHg 72%
    20:00 +12°C° 0 mm 2 mps 744 mmHg 73%
    21:00 +10°C° 0 mm 2 mps 744 mmHg 74%
    22:00 +10°C° 0 mm 2 mps 744 mmHg 75%
    23:00 +9°C° 0 mm 2 mps 744 mmHg 78%
    Show more